THOR ABLESTAR DEB, 467

Orbit data source: Space-Track

THOR ABLESTAR DEB, 467 is space debris in LEO originally from a launch on Thu, 29 Jun 1961 UTC launched from the Air Force Eastern Test Range (AFETR). Debris objects in space refer to the collection of defunct objects orbiting the Earth. Examples of debris include non-operational satellites, rocket bodies, and fragments generated from explosions, collisions, or faulty payload assembly.

Loading next visibility...
Identifier
467, 1961-015FD
Orbit
LEO
Country
Flag of USUS
Related business
Manufacturer
Unknown
Mission
Spacecraft
Bus & Motor
Unknown
Mass
Unknown
Launch date (UTC)
1961-06-29 (65 years ago)
Launch vehicle
Unknown
Launch site
Air Force Eastern Test Range (AFETR)
Object type
Payload
Rocket body
Debris
Shape & HBR
Unknown shape, 0.1 m
Radar Cross Section
Small (<0.1 m²)

Expand to show TLE details & history
Last TLE update: 20 hours ago

TLE from 20 hours ago
0 THOR ABLESTAR DEB
1 00467U 61015FD  26062.17139205  .00002537  00000-0  30173-2 0  9997
2 00467  66.5604 335.1662 0243604  23.3543 337.8361 13.57134787266552
Epoch: 2026-03-03T04:06Z
TLE epoch observation values (Epoch: 2026-03-03T04:06:48.273Z)
Latitude
-0.00001°
Longitude
112.51078°
Altitude
881.284 km
Speed
7.495 km/s
True Right ascension
22h 20m 39s
True Declination
0° 00' 00"
Sunlit
Object was in daylight at epoch
Visualization orbit readout
Latitude
Unknown
Longitude
Unknown
Altitude
Unknown
Speed
Unknown
Apparent Right ascension
Unknown
Apparent Declination
Unknown
Sunlit
N/A
Visualization observer readout
Local Sidereal Time
03:50:17
Azimuth
Unknown
Elevation
Unknown
Doppler factor
Unknown
Orbital elements
Apogee altitude
1,225.389 km
Perigee altitude
863.748 km
Semi-major axis
7,422.706 km
Eccentricity
0.02436
Inclination
66.5604°
RAAN
335.1662°
Arg. of periapsis
23.3543°
True anomaly
336.75253°
Mean anomaly
337.8361°
Eccentric anomaly
337.29741°
Mean motion
3.39391 °/min
Orbital period
106.07 mins
BSTAR
0.0030173

Documentation

Showing up to 5 results
|